Location: Bottom School (historical)
(37.9078°N, 89.3593°W)
Time: 18:39:00
(UTC+00:00)

SL-4 R/B - Pass Details

Date: 05 July 2022
Orbit: 425 x 653 km, 51.6° (Epoch: 15 August)

Event Time Altitude Azimuth Distance (km) Brightness Sun altitude
Exits shadow 06:29:05 21° 348° (NNW) 1,093 4.2 -29.0°
Drops below altitude 10° 06:31:28 10° 27° (NNE) 1,642 5.3 -28.9°
Sets 06:34:05 0° 44° (NE) 2,568 6.2 -28.8°
